| time (UTC) | temp F | wind direction | speed MPH | gust MPH | rain 1hr in | rain 24hr in | rain mn in | humidity % | barometer mb |
| 20260904020053 | 77 | 226 | 0.0 | 0.0 | 0.00 | 0.00 | 0.14 | 71 | 1008.9 |
| 20260904014605 | 78 | 226 | 0.0 | 0.0 | 0.00 | 0.00 | 0.14 | 71 | 1008.8 |
| 20260904013051 | 78 | 226 | 0.0 | 0.0 | 0.00 | 0.00 | 0.14 | 71 | 1008.5 |
| 20260904011550 | 78 | 226 | 0.0 | 0.0 | 0.00 | 0.00 | 0.14 | 72 | 1008.5 |
| 20260904010050 | 78 | 226 | 0.0 | 0.0 | 0.00 | 0.00 | 0.14 | 72 | 1008.4 |
| 20260904004550 | 78 | 226 | 0.0 | 0.0 | 0.00 | 0.00 | 0.14 | 73 | 1008.3 |
| 20260904003049 | 79 | 226 | 0.0 | 0.0 | 0.00 | 0.00 | 0.14 | 73 | 1008.3 |
| 20260904001549 | 80 | 226 | 0.0 | 0.0 | 0.00 | 0.00 | 0.14 | 74 | 1008.3 |
| 20260904000050 | 81 | 226 | 0.0 | 0.0 | 0.00 | 0.00 | 0.13 | 75 | 1008.3 |
| 20260903234548 | 81 | 226 | 0.0 | 0.0 | 0.00 | 0.00 | 0.13 | 76 | 1008.2 |
| 20260903233050 | 81 | 228 | 0.0 | 0.0 | 0.00 | 0.00 | 0.13 | 76 | 1008.1 |
| 20260903231547 | 81 | 228 | 0.0 | 0.0 | 0.00 | 0.00 | 0.13 | 76 | 1008.2 |
| 20260903230049 | 81 | 228 | 0.0 | 0.0 | 0.00 | 0.00 | 0.13 | 76 | 1008.1 |
| 20260903224545 | 81 | 228 | 0.0 | 0.0 | 0.00 | 0.00 | 0.13 | 76 | 1007.7 |
| 20260903223044 | 81 | 228 | 0.0 | 0.0 | 0.00 | 0.00 | 0.13 | 75 | 1007.5 |
| 20260903221542 | 81 | 228 | 0.0 | 0.0 | 0.00 | 0.00 | 0.13 | 76 | 1008.0 |
| 20260903220047 | 81 | 229 | 0.0 | 0.0 | 0.00 | 0.00 | 0.13 | 76 | 1008.1 |
| 20260903214544 | 81 | 229 | 0.0 | 0.0 | 0.00 | 0.00 | 0.13 | 76 | 1008.1 |
| 20260903213038 | 80 | 229 | 0.0 | 0.0 | 0.00 | 0.00 | 0.13 | 77 | 1008.6 |
| 20260903211538 | 79 | 225 | 0.0 | 0.0 | 0.00 | 0.00 | 0.13 | 76 | 1008.2 |
| 20260903210043 | 80 | 224 | 0.0 | 0.0 | 0.00 | 0.00 | 0.13 | 77 | 1008.3 |
| 20260903204536 | 80 | 207 | 0.0 | 0.0 | 0.00 | 0.00 | 0.13 | 77 | 1008.5 |
| 20260903203036 | 80 | 296 | 0.0 | 0.0 | 0.00 | 0.00 | 0.13 | 77 | 1008.2 |
| 20260903201535 | 80 | 309 | 0.0 | 0.0 | 0.00 | 0.00 | 0.12 | 77 | 1008.1 |
| 20260903200033 | 79 | 212 | 0.0 | 0.0 | 0.00 | 0.00 | 0.12 | 76 | 1008.5 |
| 20260903194530 | 79 | 212 | 0.0 | 0.0 | 0.00 | 0.00 | 0.12 | 76 | 1008.4 |
| 20260903193029 | 78 | 242 | 0.0 | 0.0 | 0.00 | 0.00 | 0.12 | 74 | 1008.5 |
| 20260903191541 | 78 | 238 | 0.0 | 0.0 | 0.00 | 0.00 | 0.12 | 72 | 1008.8 |
| 20260903190024 | 77 | 237 | 0.0 | 0.0 | 0.00 | 0.00 | 0.12 | 70 | 1008.8 |
| 20260903184527 | 76 | 58 | 0.0 | 0.0 | 0.00 | 0.00 | 0.12 | 71 | 1009.1 |
| 20260903183021 | 75 | 58 | 0.0 | 0.0 | 0.00 | 0.00 | 0.12 | 70 | 1009.4 |
| 20260903181520 | 75 | 58 | 0.0 | 0.0 | 0.00 | 0.00 | 0.12 | 71 | 1009.5 |
| 20260903180024 | 75 | 58 | 0.0 | 0.0 | 0.00 | 0.00 | 0.12 | 71 | 1009.9 |
| 20260903174520 | 74 | 58 | 0.0 | 0.0 | 0.00 | 0.00 | 0.11 | 71 | 1010.4 |
| 20260903173021 | 74 | 68 | 0.0 | 0.0 | 0.00 | 0.00 | 0.11 | 71 | 1009.9 |
| 20260903171518 | 74 | 68 | 0.0 | 0.0 | 0.00 | 0.00 | 0.11 | 71 | 1009.4 |
| 20260903170019 | 73 | 51 | 0.0 | 0.0 | 0.00 | 0.00 | 0.11 | 71 | 1009.9 |
| 20260903164518 | 73 | 74 | 0.0 | 0.0 | 0.00 | 0.00 | 0.11 | 71 | 1010.9 |
| 20260903163017 | 73 | 71 | 0.0 | 0.0 | 0.00 | 0.00 | 0.11 | 71 | 1010.0 |
| 20260903161517 | 73 | 354 | 0.0 | 0.0 | 0.00 | 0.00 | 0.11 | 71 | 1009.4 |
| 20260903160017 | 73 | 354 | 0.0 | 0.0 | 0.00 | 0.00 | 0.10 | 71 | 1009.0 |
| 20260903154516 | 72 | 354 | 0.0 | 0.0 | 0.00 | 0.00 | 0.10 | 71 | 1009.0 |
| 20260903153016 | 72 | 59 | 0.0 | 0.0 | 0.00 | 0.00 | 0.09 | 71 | 1009.5 |
| 20260903151516 | 72 | 59 | 0.0 | 0.0 | 0.00 | 0.00 | 0.09 | 71 | 1009.9 |
| 20260903150019 | 72 | 59 | 0.0 | 0.0 | 0.00 | 0.00 | 0.08 | 71 | 1011.1 |
| 20260903144511 | 73 | 100 | 0.0 | 0.0 | 0.00 | 0.00 | 0.07 | 72 | 1011.5 |
| 20260903143009 | 73 | 65 | 0.0 | 0.0 | 0.00 | 0.00 | 0.07 | 72 | 1010.8 |
| 20260903141510 | 74 | 71 | 2.0 | 0.0 | 0.00 | 0.00 | 0.06 | 71 | 1011.0 |
| 20260903140015 | 75 | 99 | 0.0 | 0.0 | 0.00 | 0.00 | 0.06 | 71 | 1011.0 |
| 20260903134504 | 75 | 51 | 0.0 | 0.0 | 0.00 | 0.00 | 0.06 | 71 | 1010.2 |
| 20260903133003 | 75 | 51 | 0.0 | 0.0 | 0.00 | 0.00 | 0.06 | 71 | 1009.4 |
| 20260903131610 | 75 | 51 | 0.0 | 0.0 | 0.00 | 0.00 | 0.06 | 71 | 1009.3 |
| 20260903130120 | 75 | 51 | 0.0 | 0.0 | 0.00 | 0.00 | 0.06 | 71 | 1008.8 |
| 20260903124600 | 75 | 51 | 0.0 | 0.0 | 0.00 | 0.00 | 0.05 | 71 | 1008.9 |
| 20260903123059 | 75 | 51 | 0.0 | 0.0 | 0.00 | 0.00 | 0.04 | 71 | 1008.9 |
| 20260903121557 | 75 | 51 | 0.0 | 0.0 | 0.00 | 0.00 | 0.03 | 71 | 1009.0 |
| 20260903120056 | 75 | 51 | 0.0 | 0.0 | 0.00 | 0.00 | 0.02 | 71 | 1008.4 |
| 20260903114556 | 75 | 51 | 0.0 | 0.0 | 0.00 | 0.00 | 0.00 | 71 | 1008.6 |
| 20260903113055 | 75 | 51 | 0.0 | 0.0 | 0.00 | 0.00 | 0.00 | 71 | 1008.1 |
| 20260903111603 | 75 | 51 | 0.0 | 0.0 | 0.00 | 0.00 | 0.00 | 71 | 1007.9 |
| 20260903110054 | 74 | 51 | 0.0 | 0.0 | 0.00 | 0.00 | 0.00 | 71 | 1007.8 |
| 20260903104554 | 74 | 51 | 0.0 | 0.0 | 0.00 | 0.00 | 0.00 | 71 | 1007.9 |
| 20260903103054 | 74 | 51 | 0.0 | 0.0 | 0.00 | 0.00 | 0.00 | 71 | 1008.0 |
| 20260903101557 | 74 | 51 | 0.0 | 0.0 | 0.00 | 0.00 | 0.00 | 71 | 1007.9 |
| 20260903100054 | 74 | 51 | 0.0 | 0.0 | 0.00 | 0.00 | 0.00 | 71 | 1007.9 |
| 20260903094556 | 74 | 51 | 0.0 | 0.0 | 0.00 | 0.00 | 0.00 | 71 | 1008.0 |
| 20260903093102 | 74 | 51 | 0.0 | 0.0 | 0.00 | 0.00 | 0.00 | 71 | 1008.1 |
| 20260903091549 | 74 | 51 | 0.0 | 0.0 | 0.00 | 0.00 | 0.00 | 71 | 1008.1 |
| 20260903090049 | 73 | 51 | 0.0 | 0.0 | 0.00 | 0.00 | 0.00 | 71 | 1008.0 |
| 20260903084548 | 73 | 51 | 0.0 | 0.0 | 0.00 | 0.00 | 0.00 | 72 | 1008.0 |
| 20260903083053 | 73 | 51 | 0.0 | 0.0 | 0.00 | 0.00 | 0.00 | 72 | 1008.0 |
| 20260903081549 | 73 | 51 | 0.0 | 0.0 | 0.00 | 0.00 | 0.00 | 72 | 1007.9 |
| 20260903080050 | 73 | 51 | 0.0 | 0.0 | 0.00 | 0.00 | 0.00 | 72 | 1008.1 |
| 20260903074546 | 73 | 51 | 0.0 | 0.0 | 0.00 | 0.00 | 0.00 | 72 | 1008.0 |
| 20260903073045 | 73 | 51 | 0.0 | 0.0 | 0.00 | 0.00 | 0.00 | 72 | 1008.2 |
| 20260903071542 | 74 | 51 | 0.0 | 0.0 | 0.00 | 0.00 | 0.00 | 72 | 1008.3 |
| 20260903070040 | 74 | 51 | 0.0 | 0.0 | 0.00 | 0.00 | 0.00 | 73 | 1008.4 |
| 20260903064541 | 74 | 51 | 0.0 | 0.0 | 0.00 | 0.00 | 0.00 | 73 | 1008.4 |
| 20260903063038 | 74 | 51 | 0.0 | 0.0 | 0.00 | 0.00 | 0.00 | 73 | 1008.4 |
| 20260903061547 | 74 | 51 | 0.0 | 0.0 | 0.00 | 0.00 | 0.00 | 73 | 1008.5 |
| 20260903060037 | 75 | 51 | 0.0 | 0.0 | 0.00 | 0.00 | 0.00 | 73 | 1008.5 |
| 20260903054535 | 75 | 51 | 0.0 | 0.0 | 0.00 | 0.00 | 0.00 | 73 | 1008.6 |
| 20260903053034 | 75 | 51 | 0.0 | 0.0 | 0.00 | 0.00 | 0.00 | 74 | 1008.6 |
| 20260903051533 | 75 | 51 | 0.0 | 0.0 | 0.00 | 0.00 | 0.00 | 74 | 1008.6 |
| 20260903050033 | 75 | 51 | 0.0 | 0.0 | 0.00 | 0.00 | 0.00 | 75 | 1008.7 |
| 20260903044536 | 75 | 51 | 0.0 | 0.0 | 0.00 | 0.00 | 0.00 | 76 | 1008.7 |
| 20260903043040 | 75 | 51 | 0.0 | 0.0 | 0.00 | 0.00 | 0.00 | 76 | 1008.6 |
| 20260903041531 | 75 | 51 | 0.0 | 0.0 | 0.00 | 0.00 | 0.00 | 76 | 1008.6 |
| 20260903040028 | 76 | 51 | 0.0 | 0.0 | 0.00 | 0.00 | 0.00 | 77 | 1008.6 |
| 20260903034538 | 76 | 51 | 0.0 | 0.0 | 0.00 | 0.00 | 0.00 | 77 | 1008.6 |
| 20260903033026 | 76 | 51 | 0.0 | 0.0 | 0.00 | 0.00 | 0.00 | 77 | 1008.6 |
| 20260903031525 | 76 | 51 | 0.0 | 0.0 | 0.00 | 0.00 | 0.00 | 77 | 1008.5 |
| 20260903030026 | 77 | 51 | 0.0 | 0.0 | 0.00 | 0.00 | 0.00 | 77 | 1008.4 |
| 20260903024525 | 77 | 51 | 0.0 | 0.0 | 0.00 | 0.00 | 0.00 | 76 | 1008.4 |
| 20260903023025 | 77 | 51 | 0.0 | 0.0 | 0.00 | 0.00 | 0.00 | 76 | 1008.4 |
| 20260903021524 | 77 | 51 | 0.0 | 0.0 | 0.00 | 0.00 | 0.00 | 77 | 1008.1 |